QPF
0.01 0.01 0.00 0.00 0.01 0.01 0.01 0.03 0.04 0.05 0.07 0.08 0.08 0.06 0.05 0.03 0.02 0.02 0.02 0.02 0.01 0.01 0.02 0.04 0.05 0.07 0.07 0.08 0.07 0.07 0.06 0.05 0.05 0.05 0.04 0.03 0.03 0.03 0.03 0.03 0.04 0.03 0.03
0.02 0.01 0.01 0.00 0.01 0.01 0.02 0.02 0.03 0.04 0.05 0.05 0.05 0.05 0.04 0.03 0.02 0.02 0.02 0.03 0.02 0.01 0.02 0.03 0.05 0.06 0.08 0.09 0.10 0.09 0.08 0.07 0.07 0.07 0.06 0.05 0.04 0.04 0.04 0.04 0.05 0.05 0.04
0.04 0.03 0.02 0.01 0.01 0.01 0.01 0.02 0.03 0.03 0.04 0.04 0.04 0.04 0.04 0.04 0.03 0.02 0.02 0.03 0.03 0.02 0.01 0.02 0.04 0.06 0.08 0.09 0.11 0.11 0.09 0.09 0.09 0.09 0.08 0.07 0.06 0.05 0.05 0.05 0.05 0.05 0.05
0.03 0.04 0.04 0.03 0.02 0.02 0.01 0.02 0.02 0.03 0.03 0.04 0.04 0.04 0.05 0.05 0.04 0.03 0.04 0.03 0.03 0.03 0.02 0.02 0.03 0.05 0.06 0.08 0.10 0.11 0.10 0.09 0.10 0.10 0.10 0.09 0.08 0.08 0.07 0.06 0.06 0.05 0.05
0.02 0.03 0.04 0.04 0.03 0.02 0.02 0.02 0.02 0.02 0.03 0.03 0.04 0.05 0.05 0.04 0.05 0.05 0.04 0.04 0.03 0.03 0.02 0.02 0.02 0.04 0.04 0.06 0.09 0.10 0.09 0.09 0.10 0.13 0.13 0.13 0.12 0.11 0.10 0.09 0.08 0.07 0.06
0.02 0.02 0.03 0.05 0.05 0.03 0.02 0.02 0.03 0.02 0.02 0.03 0.03 0.04 0.06 0.06 0.05 0.05 0.05 0.05 0.04 0.03 0.03 0.03 0.02 0.03 0.04 0.05 0.07 0.08 0.09 0.09 0.10 0.11 0.15 0.18 0.19 0.17 0.14 0.11 0.09 0.08 0.08
0.04 0.05 0.04 0.04 0.06 0.05 0.03 0.02 0.02 0.03 0.03 0.03 0.04 0.05 0.05 0.08 0.09 0.07 0.05 0.05 0.05 0.04 0.03 0.03 0.03 0.03 0.03 0.03 0.04 0.05 0.08 0.09 0.10 0.11 0.13 0.16 0.21 0.22 0.20 0.15 0.12 0.11 0.12
0.06 0.06 0.06 0.05 0.04 0.03 0.03 0.02 0.02 0.03 0.03 0.03 0.04 0.06 0.07 0.09 0.10 0.10 0.09 0.06 0.05 0.05 0.04 0.03 0.03 0.03 0.03 0.02 0.02 0.02 0.05 0.08 0.08 0.10 0.13 0.15 0.18 0.23 0.25 0.23 0.20 0.18 0.16
0.04 0.04 0.03 0.03 0.03 0.03 0.02 0.02 0.02 0.02 0.03 0.04 0.04 0.05 0.06 0.08 0.09 0.10 0.10 0.08 0.06 0.05 0.04 0.03 0.03 0.03 0.02 0.02 0.02 0.02 0.03 0.05 0.08 0.09 0.11 0.13 0.16 0.22 0.26 0.27 0.27 0.26 0.23
0.02 0.02 0.02 0.02 0.02 0.02 0.03 0.03 0.02 0.02 0.03 0.03 0.04 0.04 0.05 0.06 0.08 0.10 0.09 0.09 0.08 0.06 0.05 0.03 0.03 0.03 0.03 0.02 0.02 0.01 0.02 0.03 0.05 0.09 0.12 0.13 0.14 0.18 0.24 0.26 0.27 0.26 0.24
0.01 0.01 0.02 0.02 0.02 0.02 0.03 0.03 0.03 0.03 0.03 0.03 0.03 0.04 0.04 0.05 0.06 0.08 0.10 0.10 0.09 0.08 0.06 0.05 0.03 0.03 0.03 0.02 0.02 0.02 0.02 0.02 0.04 0.07 0.13 0.16 0.17 0.18 0.24 0.29 0.32 0.35 0.32
0.01 0.01 0.01 0.02 0.03 0.03 0.03 0.03 0.04 0.03 0.03 0.04 0.05 0.05 0.05 0.05 0.06 0.06 0.06 0.08 0.09 0.08 0.07 0.05 0.05 0.04 0.03 0.03 0.03 0.04 0.04 0.03 0.03 0.04 0.08 0.14 0.17 0.19 0.21 0.25 0.25 0.25 0.29
0.02 0.02 0.03 0.04 0.04 0.04 0.03 0.03 0.04 0.04 0.05 0.06 0.08 0.08 0.07 0.06 0.07 0.08 0.08 0.08 0.08 0.07 0.07 0.06 0.05 0.04 0.05 0.05 0.06 0.08 0.07 0.06 0.05 0.05 0.05 0.07 0.11 0.14 0.17 0.21 0.22 0.20 0.20
0.02 0.02 0.03 0.04 0.04 0.05 0.05 0.04 0.04 0.04 0.06 0.07 0.08 0.10 0.09 0.09 0.08 0.09 0.10 0.12 0.12 0.10 0.08 0.06 0.05 0.05 0.06 0.07 0.07 0.08 0.08 0.09 0.09 0.08 0.07 0.06 0.08 0.10 0.15 0.19 0.20 0.21 0.20
0.03 0.03 0.03 0.03 0.03 0.04 0.04 0.04 0.04 0.04 0.05 0.06 0.07 0.07 0.08 0.09 0.10 0.09 0.10 0.11 0.13 0.12 0.09 0.07 0.05 0.04 0.04 0.05 0.06 0.06 0.06 0.07 0.08 0.10 0.11 0.10 0.08 0.09 0.13 0.17 0.17 0.17 0.15
0.02 0.02 0.02 0.03 0.03 0.03 0.03 0.04 0.03 0.03 0.04 0.06 0.07 0.07 0.07 0.07 0.08 0.09 0.11 0.11 0.10 0.11 0.10 0.08 0.05 0.04 0.03 0.04 0.05 0.05 0.06 0.07 0.08 0.09 0.10 0.11 0.11 0.09 0.12 0.17 0.16 0.13 0.09
0.01 0.02 0.02 0.02 0.03 0.03 0.03 0.04 0.04 0.03 0.04 0.06 0.09 0.08 0.07 0.06 0.07 0.10 0.12 0.12 0.10 0.09 0.08 0.06 0.04 0.03 0.03 0.03 0.04 0.05 0.07 0.08 0.10 0.12 0.13 0.12 0.13 0.13 0.12 0.13 0.15 0.14 0.10
0.01 0.02 0.02 0.02 0.02 0.02 0.02 0.03 0.03 0.04 0.05 0.07 0.10 0.09 0.07 0.07 0.07 0.08 0.10 0.09 0.08 0.06 0.05 0.04 0.03 0.02 0.02 0.02 0.03 0.04 0.05 0.07 0.08 0.12 0.13 0.12 0.12 0.12 0.12 0.10 0.11 0.14 0.13
0.03 0.03 0.03 0.02 0.02 0.02 0.02 0.02 0.02 0.04 0.05 0.06 0.09 0.09 0.08 0.08 0.08 0.07 0.07 0.07 0.07 0.05 0.04 0.03 0.02 0.01 0.02 0.02 0.03 0.06 0.05 0.05 0.06 0.09 0.10 0.11 0.10 0.09 0.10 0.11 0.09 0.10 0.10
0.02 0.03 0.04 0.04 0.04 0.04 0.04 0.02 0.03 0.04 0.05 0.06 0.08 0.07 0.06 0.07 0.07 0.06 0.06 0.06 0.05 0.04 0.03 0.02 0.02 0.02 0.02 0.03 0.04 0.06 0.07 0.07 0.07 0.07 0.09 0.11 0.11 0.10 0.10 0.11 0.11 0.08 0.07
0.02 0.03 0.04 0.05 0.06 0.05 0.06 0.05 0.04 0.05 0.06 0.05 0.06 0.07 0.07 0.06 0.06 0.05 0.04 0.04 0.03 0.03 0.02 0.02 0.02 0.03 0.04 0.05 0.06 0.08 0.07 0.07 0.08 0.06 0.07 0.10 0.10 0.10 0.11 0.12 0.12 0.09 0.07
0.03 0.03 0.04 0.04 0.04 0.04 0.05 0.07 0.06 0.06 0.06 0.06 0.06 0.07 0.07 0.07 0.07 0.06 0.04 0.03 0.03 0.03 0.02 0.02 0.02 0.04 0.05 0.06 0.08 0.07 0.05 0.05 0.07 0.07 0.07 0.09 0.09 0.11 0.13 0.15 0.14 0.10 0.07
0.05 0.05 0.05 0.04 0.04 0.05 0.05 0.06 0.06 0.06 0.05 0.06 0.06 0.06 0.05 0.05 0.05 0.04 0.04 0.03 0.03 0.02 0.02 0.03 0.03 0.03 0.05 0.06 0.08 0.07 0.04 0.04 0.06 0.06 0.06 0.08 0.09 0.12 0.13 0.15 0.16 0.14 0.09
0.05 0.05 0.05 0.04 0.04 0.06 0.06 0.06 0.06 0.05 0.05 0.05 0.05 0.05 0.04 0.04 0.04 0.03 0.02 0.02 0.02 0.02 0.02 0.02 0.03 0.04 0.05 0.05 0.06 0.05 0.04 0.04 0.05 0.05 0.05 0.06 0.07 0.08 0.10 0.14 0.16 0.15 0.12
0.06 0.05 0.05 0.05 0.04 0.05 0.06 0.06 0.05 0.04 0.04 0.04 0.04 0.03 0.02 0.02 0.03 0.03 0.02 0.02 0.02 0.01 0.02 0.03 0.04 0.04 0.04 0.06 0.06 0.04 0.04 0.04 0.04 0.04 0.03 0.03 0.04 0.06 0.10 0.15 0.19 0.19 0.15
0.06 0.06 0.06 0.06 0.04 0.04 0.05 0.06 0.05 0.03 0.03 0.03 0.02 0.02 0.02 0.03 0.02 0.02 0.01 0.01 0.02 0.02 0.02 0.02 0.03 0.03 0.03 0.04 0.05 0.04 0.03 0.03 0.03 0.03 0.02 0.02 0.03 0.06 0.10 0.14 0.16 0.17 0.17
MSLP
1018.66 1018.59 1018.48 1018.34 1018.17 1017.98 1017.75 1017.50 1017.19 1016.82 1016.39 1015.90 1015.35 1014.78 1014.21 1013.66 1013.17 1012.75 1012.37 1012.04 1011.73 1011.40 1011.04 1010.64 1010.18 1009.69 1009.18 1008.68 1008.19 1007.72 1007.27 1006.83 1006.39 1005.95 1005.49 1005.02 1004.56 1004.14 1003.76 1003.45 1003.22 1003.07 1003.03
1018.83 1018.75 1018.64 1018.51 1018.35 1018.15 1017.92 1017.64 1017.31 1016.89 1016.40 1015.84 1015.23 1014.60 1013.98 1013.40 1012.89 1012.47 1012.11 1011.80 1011.50 1011.19 1010.83 1010.40 1009.91 1009.36 1008.77 1008.18 1007.60 1007.06 1006.56 1006.10 1005.67 1005.25 1004.84 1004.42 1004.01 1003.61 1003.23 1002.88 1002.58 1002.35 1002.20
1019.06 1018.98 1018.87 1018.72 1018.55 1018.35 1018.10 1017.79 1017.41 1016.95 1016.40 1015.78 1015.11 1014.42 1013.76 1013.15 1012.62 1012.18 1011.83 1011.53 1011.24 1010.93 1010.56 1010.10 1009.56 1008.95 1008.28 1007.60 1006.94 1006.32 1005.76 1005.27 1004.84 1004.45 1004.08 1003.72 1003.35 1002.98 1002.61 1002.24 1001.90 1001.60 1001.37
1019.33 1019.24 1019.12 1018.97 1018.79 1018.56 1018.29 1017.95 1017.53 1017.02 1016.42 1015.75 1015.02 1014.29 1013.58 1012.93 1012.36 1011.90 1011.52 1011.20 1010.89 1010.56 1010.17 1009.68 1009.09 1008.41 1007.68 1006.92 1006.19 1005.50 1004.89 1004.37 1003.93 1003.55 1003.21 1002.88 1002.56 1002.21 1001.85 1001.48 1001.11 1000.77 1000.48
1019.59 1019.50 1019.38 1019.22 1019.03 1018.78 1018.49 1018.12 1017.67 1017.13 1016.49 1015.78 1015.02 1014.23 1013.47 1012.76 1012.14 1011.61 1011.18 1010.80 1010.44 1010.06 1009.62 1009.09 1008.46 1007.74 1006.96 1006.15 1005.36 1004.62 1003.97 1003.41 1002.95 1002.56 1002.22 1001.91 1001.60 1001.27 1000.92 1000.55 1000.18 999.82 999.51
1019.80 1019.73 1019.61 1019.45 1019.25 1019.00 1018.69 1018.32 1017.86 1017.30 1016.65 1015.91 1015.12 1014.29 1013.47 1012.68 1011.97 1011.35 1010.81 1010.33 1009.88 1009.42 1008.91 1008.34 1007.67 1006.92 1006.12 1005.29 1004.47 1003.70 1003.01 1002.41 1001.91 1001.48 1001.12 1000.79 1000.47 1000.14 999.80 999.44 999.08 998.73 998.43
1019.94 1019.88 1019.78 1019.63 1019.44 1019.20 1018.91 1018.54 1018.09 1017.54 1016.90 1016.16 1015.34 1014.47 1013.59 1012.72 1011.89 1011.13 1010.45 1009.82 1009.24 1008.67 1008.08 1007.45 1006.75 1005.99 1005.18 1004.35 1003.53 1002.74 1002.02 1001.37 1000.81 1000.33 999.91 999.54 999.19 998.85 998.51 998.17 997.83 997.52 997.24
1019.98 1019.95 1019.88 1019.76 1019.59 1019.38 1019.11 1018.77 1018.36 1017.84 1017.22 1016.50 1015.68 1014.78 1013.83 1012.86 1011.90 1010.99 1010.13 1009.34 1008.60 1007.89 1007.20 1006.49 1005.76 1004.99 1004.19 1003.36 1002.54 1001.74 1000.98 1000.28 999.66 999.10 998.60 998.17 997.77 997.41 997.07 996.75 996.46 996.20 995.97
1019.94 1019.94 1019.90 1019.81 1019.68 1019.51 1019.28 1018.99 1018.62 1018.16 1017.58 1016.89 1016.08 1015.16 1014.16 1013.10 1012.02 1010.94 1009.91 1008.93 1008.02 1007.16 1006.34 1005.55 1004.76 1003.97 1003.16 1002.34 1001.51 1000.68 999.88 999.11 998.40 997.76 997.18 996.68 996.24 995.86 995.54 995.26 995.02 994.82 994.65
1019.83 1019.87 1019.87 1019.82 1019.73 1019.59 1019.40 1019.16 1018.84 1018.43 1017.90 1017.25 1016.47 1015.55 1014.51 1013.39 1012.20 1010.99 1009.79 1008.64 1007.55 1006.54 1005.59 1004.69 1003.83 1002.98 1002.14 1001.28 1000.40 999.52 998.65 997.80 997.01 996.28 995.63 995.07 994.61 994.24 993.95 993.74 993.57 993.44 993.33
1019.69 1019.77 1019.80 1019.78 1019.72 1019.61 1019.46 1019.24 1018.96 1018.59 1018.11 1017.50 1016.75 1015.85 1014.81 1013.65 1012.40 1011.09 1009.78 1008.48 1007.24 1006.08 1004.98 1003.96 1002.99 1002.04 1001.11 1000.16 999.20 998.23 997.26 996.31 995.43 994.62 993.92 993.34 992.89 992.56 992.34 992.21 992.14 992.09 992.04
1019.55 1019.66 1019.72 1019.72 1019.67 1019.58 1019.42 1019.21 1018.94 1018.59 1018.13 1017.56 1016.85 1015.99 1014.98 1013.83 1012.57 1011.22 1009.82 1008.43 1007.07 1005.77 1004.54 1003.36 1002.24 1001.15 1000.06 998.97 997.87 996.76 995.66 994.60 993.63 992.76 992.04 991.47 991.07 990.83 990.72 990.71 990.75 990.79 990.82
1019.43 1019.56 1019.64 1019.65 1019.60 1019.48 1019.30 1019.07 1018.77 1018.40 1017.95 1017.40 1016.73 1015.93 1014.97 1013.87 1012.64 1011.30 1009.89 1008.45 1007.01 1005.59 1004.21 1002.87 1001.57 1000.28 998.99 997.70 996.40 995.11 993.86 992.67 991.61 990.71 989.99 989.48 989.17 989.06 989.08 989.22 989.39 989.55 989.65
1019.33 1019.49 1019.58 1019.58 1019.50 1019.34 1019.11 1018.81 1018.45 1018.04 1017.57 1017.02 1016.39 1015.63 1014.75 1013.74 1012.58 1011.30 1009.93 1008.48 1006.99 1005.48 1003.96 1002.45 1000.93 999.41 997.88 996.34 994.81 993.31 991.88 990.57 989.44 988.51 987.82 987.40 987.22 987.25 987.44 987.73 988.05 988.34 988.53
1019.26 1019.43 1019.52 1019.51 1019.39 1019.16 1018.85 1018.46 1018.02 1017.54 1017.02 1016.46 1015.84 1015.15 1014.34 1013.42 1012.37 1011.18 1009.87 1008.45 1006.94 1005.36 1003.72 1002.03 1000.30 998.54 996.75 994.95 993.17 991.45 989.84 988.41 987.20 986.27 985.63 985.30 985.25 985.44 985.81 986.27 986.74 987.15 987.45
1019.17 1019.36 1019.45 1019.41 1019.24 1018.95 1018.55 1018.06 1017.52 1016.96 1016.38 1015.78 1015.17 1014.51 1013.78 1012.96 1012.01 1010.92 1009.69 1008.32 1006.81 1005.18 1003.43 1001.59 999.66 997.67 995.63 993.58 991.57 989.65 987.88 986.33 985.07 984.14 983.55 983.31 983.39 983.72 984.23 984.84 985.45 985.98 986.39
1019.05 1019.25 1019.33 1019.27 1019.05 1018.69 1018.21 1017.63 1017.00 1016.35 1015.70 1015.06 1014.44 1013.80 1013.13 1012.38 1011.52 1010.52 1009.36 1008.04 1006.55 1004.88 1003.06 1001.10 999.01 996.83 994.60 992.35 990.15 988.07 986.17 984.54 983.24 982.31 981.76 981.59 981.75 982.19 982.81 983.53 984.24 984.87 985.38
1018.87 1019.08 1019.14 1019.06 1018.80 1018.39 1017.84 1017.19 1016.48 1015.76 1015.05 1014.37 1013.72 1013.09 1012.44 1011.73 1010.93 1009.99 1008.89 1007.61 1006.13 1004.45 1002.59 1000.56 998.38 996.08 993.72 991.35 989.04 986.86 984.90 983.22 981.89 980.96 980.43 980.29 980.50 980.98 981.66 982.43 983.20 983.90 984.50
1018.62 1018.81 1018.86 1018.75 1018.47 1018.03 1017.44 1016.74 1015.99 1015.22 1014.46 1013.74 1013.06 1012.41 1011.75 1011.06 1010.27 1009.36 1008.28 1007.02 1005.56 1003.89 1002.03 999.98 997.78 995.46 993.07 990.68 988.35 986.16 984.19 982.50 981.18 980.25 979.72 979.57 979.77 980.24 980.90 981.67 982.45 983.19 983.83
1018.30 1018.46 1018.48 1018.35 1018.05 1017.59 1016.99 1016.29 1015.51 1014.72 1013.94 1013.19 1012.48 1011.79 1011.10 1010.37 1009.57 1008.64 1007.56 1006.31 1004.86 1003.23 1001.41 999.41 997.27 995.02 992.71 990.39 988.14 986.02 984.11 982.48 981.19 980.26 979.71 979.53 979.67 980.08 980.67 981.38 982.13 982.85 983.53
1017.91 1018.02 1018.01 1017.85 1017.54 1017.08 1016.49 1015.80 1015.05 1014.26 1013.48 1012.72 1011.97 1011.24 1010.49 1009.70 1008.84 1007.86 1006.76 1005.50 1004.08 1002.50 1000.76 998.88 996.87 994.78 992.64 990.51 988.43 986.47 984.69 983.15 981.92 981.02 980.45 980.21 980.27 980.57 981.07 981.68 982.35 983.04 983.70
1017.47 1017.52 1017.46 1017.28 1016.96 1016.51 1015.95 1015.30 1014.58 1013.83 1013.06 1012.29 1011.52 1010.73 1009.91 1009.04 1008.10 1007.06 1005.91 1004.65 1003.26 1001.75 1000.13 998.42 996.62 994.76 992.87 990.99 989.16 987.42 985.84 984.45 983.31 982.45 981.87 981.58 981.55 981.74 982.11 982.62 983.20 983.82 984.46
1017.01 1016.99 1016.88 1016.66 1016.33 1015.90 1015.37 1014.77 1014.11 1013.40 1012.66 1011.90 1011.10 1010.26 1009.37 1008.42 1007.39 1006.28 1005.08 1003.81 1002.47 1001.06 999.59 998.08 996.53 994.95 993.37 991.79 990.25 988.79 987.44 986.23 985.22 984.42 983.86 983.53 983.43 983.52 983.79 984.18 984.67 985.23 985.84
1016.55 1016.46 1016.29 1016.03 1015.70 1015.28 1014.80 1014.25 1013.64 1012.99 1012.28 1011.52 1010.70 1009.82 1008.86 1007.83 1006.72 1005.55 1004.32 1003.06 1001.77 1000.47 999.18 997.89 996.61 995.33 994.07 992.82 991.60 990.42 989.32 988.31 987.45 986.75 986.23 985.90 985.76 985.79 985.98 986.30 986.72 987.22 987.79
1016.11 1015.95 1015.73 1015.44 1015.09 1014.69 1014.24 1013.74 1013.19 1012.59 1011.91 1011.16 1010.33 1009.41 1008.40 1007.30 1006.14 1004.92 1003.68 1002.44 1001.23 1000.06 998.94 997.87 996.86 995.88 994.92 993.98 993.06 992.16 991.30 990.50 989.80 989.21 988.76 988.47 988.33 988.35 988.50 988.78 989.17 989.64 990.18
1015.70 1015.49 1015.22 1014.91 1014.55 1014.16 1013.74 1013.28 1012.77 1012.21 1011.56 1010.83 1009.99 1009.04 1007.99 1006.86 1005.66 1004.43 1003.20 1002.00 1000.88 999.84 998.89 998.04 997.26 996.54 995.85 995.19 994.53 993.87 993.23 992.62 992.07 991.61 991.26 991.03 990.94 990.98 991.15 991.44 991.82 992.28 992.80
Thickness
5661 5660 5659 5659 5659 5659 5660 5660 5661 5662 5663 5663 5665 5666 5667 5668 5669 5670 5671 5670 5669 5669 5670 5671 5671 5671 5670 5670 5669 5669 5668 5667 5666 5665 5664 5663 5662 5660 5659 5657 5656 5654 5652
5653 5651 5651 5650 5651 5650 5650 5651 5652 5653 5654 5655 5657 5658 5659 5660 5661 5662 5663 5663 5662 5662 5662 5663 5664 5664 5663 5663 5663 5662 5662 5661 5661 5660 5659 5658 5657 5656 5654 5653 5651 5650 5648
5644 5643 5643 5642 5642 5641 5641 5642 5643 5643 5644 5646 5648 5650 5650 5651 5652 5654 5654 5654 5655 5654 5654 5655 5655 5656 5656 5656 5656 5655 5655 5654 5654 5654 5653 5652 5650 5650 5650 5648 5647 5645 5643
5636 5635 5635 5634 5633 5632 5631 5632 5633 5634 5635 5637 5639 5641 5642 5642 5643 5644 5645 5645 5646 5646 5646 5646 5646 5647 5647 5648 5648 5648 5647 5647 5647 5647 5646 5646 5645 5644 5644 5643 5641 5640 5638
5628 5627 5626 5625 5624 5623 5622 5622 5623 5623 5625 5626 5628 5630 5632 5633 5634 5635 5635 5636 5636 5636 5636 5637 5636 5637 5637 5638 5639 5639 5639 5639 5639 5639 5639 5639 5639 5638 5637 5636 5635 5634 5633
5619 5618 5617 5616 5614 5613 5611 5611 5612 5612 5613 5614 5617 5619 5621 5623 5623 5625 5625 5625 5625 5625 5625 5626 5626 5627 5627 5628 5628 5629 5629 5629 5630 5631 5631 5631 5631 5631 5630 5630 5629 5628 5626
5611 5610 5608 5607 5605 5603 5602 5601 5600 5601 5602 5602 5603 5607 5611 5613 5613 5614 5614 5614 5614 5614 5614 5615 5616 5616 5617 5617 5617 5618 5618 5618 5619 5621 5621 5622 5622 5623 5623 5622 5622 5621 5619
5604 5602 5600 5599 5596 5594 5592 5591 5589 5589 5589 5590 5591 5593 5598 5602 5603 5603 5603 5602 5602 5602 5602 5602 5603 5604 5604 5606 5607 5607 5607 5607 5609 5610 5611 5612 5613 5614 5613 5614 5614 5614 5612
5596 5594 5592 5590 5588 5586 5584 5582 5580 5578 5578 5578 5579 5579 5583 5590 5592 5594 5593 5592 5591 5590 5590 5590 5591 5592 5592 5594 5595 5596 5596 5597 5597 5599 5601 5602 5603 5604 5605 5605 5605 5604 5603
5589 5587 5585 5583 5581 5578 5576 5573 5570 5568 5568 5568 5568 5569 5571 5574 5575 5581 5583 5582 5580 5579 5579 5579 5580 5581 5582 5583 5584 5584 5585 5586 5587 5589 5590 5592 5593 5594 5596 5596 5596 5595 5595
5582 5580 5578 5577 5574 5571 5568 5564 5561 5559 5559 5559 5559 5559 5559 5560 5564 5566 5570 5572 5570 5569 5568 5569 5571 5572 5572 5573 5574 5574 5574 5576 5577 5578 5580 5581 5583 5585 5585 5586 5586 5586 5584
5576 5574 5571 5569 5567 5564 5560 5556 5553 5551 5550 5550 5550 5550 5551 5551 5554 5555 5557 5559 5560 5559 5559 5560 5562 5562 5562 5563 5564 5565 5564 5565 5567 5568 5569 5570 5572 5574 5575 5575 5575 5575 5573
5569 5567 5565 5562 5560 5557 5554 5550 5546 5544 5543 5543 5542 5543 5543 5544 5545 5545 5546 5547 5548 5549 5550 5551 5553 5553 5553 5553 5555 5554 5555 5556 5557 5558 5560 5560 5562 5563 5563 5564 5564 5563 5561
5562 5560 5557 5555 5552 5550 5547 5543 5540 5538 5536 5535 5535 5535 5535 5535 5535 5536 5536 5535 5536 5540 5542 5544 5544 5544 5543 5544 5544 5544 5546 5547 5548 5549 5550 5551 5552 5553 5552 5552 5552 5551 5550
5554 5552 5550 5548 5545 5542 5540 5537 5534 5532 5530 5529 5528 5527 5527 5526 5526 5526 5527 5527 5526 5530 5536 5535 5534 5533 5533 5533 5533 5534 5537 5538 5539 5540 5541 5542 5542 5542 5542 5541 5540 5540 5538
5548 5546 5543 5541 5539 5536 5533 5531 5529 5526 5524 5522 5521 5520 5520 5519 5519 5518 5518 5518 5519 5521 5524 5525 5523 5522 5522 5522 5523 5524 5527 5529 5530 5531 5532 5533 5532 5532 5532 5531 5529 5528 5527
5541 5539 5537 5535 5533 5531 5528 5526 5523 5520 5518 5517 5515 5514 5513 5512 5511 5511 5510 5511 5511 5512 5513 5514 5513 5512 5512 5513 5514 5515 5517 5519 5522 5522 5523 5523 5522 5522 5522 5520 5518 5516 5515
5534 5532 5530 5529 5528 5525 5523 5521 5518 5515 5513 5511 5510 5508 5507 5505 5503 5503 5504 5504 5504 5504 5505 5505 5504 5503 5503 5503 5504 5505 5507 5509 5511 5513 5513 5513 5513 5512 5510 5509 5508 5506 5504
5527 5526 5524 5523 5522 5520 5517 5514 5512 5510 5508 5505 5503 5502 5500 5498 5497 5496 5497 5497 5496 5496 5497 5496 5495 5495 5494 5493 5494 5496 5498 5500 5502 5502 5502 5502 5502 5501 5500 5499 5498 5496 5494
5520 5520 5518 5518 5516 5514 5511 5509 5506 5505 5502 5499 5497 5494 5493 5491 5490 5490 5490 5489 5489 5488 5488 5487 5487 5487 5486 5485 5485 5487 5490 5491 5492 5492 5492 5491 5491 5490 5489 5489 5488 5486 5484
5514 5513 5513 5512 5511 5508 5506 5503 5501 5499 5497 5494 5491 5488 5486 5485 5484 5482 5482 5483 5482 5481 5480 5480 5479 5479 5478 5477 5477 5478 5480 5482 5483 5481 5482 5483 5482 5481 5479 5478 5477 5476 5475
5508 5508 5507 5507 5505 5503 5500 5497 5495 5493 5490 5488 5485 5482 5480 5478 5477 5476 5476 5476 5475 5474 5474 5473 5472 5472 5471 5469 5469 5469 5470 5471 5473 5472 5470 5472 5471 5471 5471 5471 5469 5468 5467
5503 5502 5501 5501 5499 5497 5494 5492 5490 5486 5483 5481 5479 5477 5474 5473 5471 5472 5471 5470 5468 5466 5466 5466 5465 5465 5463 5461 5460 5460 5459 5460 5460 5459 5458 5461 5461 5462 5462 5462 5461 5460 5460
5497 5496 5495 5494 5492 5490 5487 5486 5482 5479 5477 5474 5472 5470 5469 5467 5466 5465 5464 5462 5461 5460 5459 5458 5457 5456 5454 5452 5450 5450 5450 5450 5450 5448 5446 5448 5451 5452 5452 5453 5453 5452 5452
5491 5490 5488 5487 5485 5483 5480 5478 5475 5473 5470 5468 5466 5464 5463 5462 5460 5458 5458 5457 5455 5453 5451 5450 5448 5447 5445 5444 5442 5442 5442 5442 5442 5441 5437 5437 5439 5441 5443 5445 5445 5444 5444
5484 5483 5481 5479 5477 5475 5472 5470 5468 5466 5464 5461 5460 5458 5456 5455 5454 5452 5452 5451 5449 5447 5445 5443 5441 5439 5438 5437 5435 5434 5433 5433 5433 5433 5430 5428 5429 5430 5433 5435 5435 5435 5435